Weather in Paleokastritsa

Greece     39°40′28″N   19°42′23″E
temp.,
°C
wind,
m/s
gust,
m/s
humid.,
%
clouds,
%
prec.,
mm/h
press.,
hPa
HPBL,
m
11 april, sun
sun1100:00+10se116347 0.0 1025210
03:00+9ese1267100 0.0 1025161
06:00+9ese1170100 0.0 1024131
09:00+11se1262100 0.0 1024224
12:00+15ssw1249100 0.0 1025819
15:00+16wsw12475 0.0 10241019
18:00+15wnw11515 0.0 1024749
21:00+12ese11624 0.0 1024187
12 april, mon
mon1200:00+11ese12665 0.0 1024106
03:00+10sse226896 0.0 102488
06:00+10se226919 0.0 102379
09:00+13se226119 0.0 1023229
12:00+17s2345100 0.0 1023720
15:00+18ssw2347100 0.0 1023832
18:00+17ssw2251100 0.0 1021698
21:00+13se1168100 0.0 1021136
13 april, tue
tue1300:00+12s2275100 0.0 1021119
03:00+12sse2279100 0.0 102186
06:00+12ese3379100 0.0 1019131
09:00+13se237797 0.0 1019133
12:00+15s3463100 0.0 1019668
15:00+17s245499 0.1 1018923
18:00+15se346553 0.4 1017539
21:00+12sse337161 0.4 1017123
14 april, wed
wed1400:00+11sse237619 0.0 101680
03:00+11s238996 2.5 1015184
06:00+11e128827 5.8 1013105
09:00+12nnw578020 8.1 1015735
12:00+13nw910710 0.5 1015982
15:00+13nw1011660 0.5 10161116
18:00+12nw911663 0.0 10161049
21:00+11nw710747 0.0 1017796
15 april, thu
thu1500:00+11nw5874100 0.0 1018601
03:00+11nw58695 0.0 1018655
06:00+10wnw587026 0.0 1018621
09:00+12nw566158 0.1 10181442
12:00+13nw666239 0.0 10201220
15:00+13nw6662100 0.0 10201046
18:00+13nw5658100 0.0 1019900
21:00+11nw5865100 0.0 1019518